Weather in Elburgan

Russia / Karachay-Cherkess Republic     44°04′45″N   41°47′53″E
temp.,
°C
wind,
m/s
gust,
m/s
humid.,
%
clouds,
%
prec.,
mm/h
press.,
hPa
HPBL,
m
1 july, fri
fri100:00+13ssw34954 0.9 101455
03:00+13s34920 0.9 101346
06:00+13s34935 0.2 1013101
09:00+19wsw117980 1.3 1012210
12:00+22n436495 1.4 10121353
15:00+21n3368100 3.3 10121203
18:00+19wnw1180100 2.2 101247
21:00+15sw228671 2.7 101418
2 july, sat
sat200:00+15ssw228994 0.0 101320
03:00+15sw228690 0.1 101222
06:00+15wsw238893 0.1 101362
09:00+17nw236618 0.1 1014786
12:00+17nnw567070 0.1 1014949
15:00+18nnw775942 0.2 10141532
18:00+15nnw466416 0.0 1016660
21:00+9w11770 0.0 101811
3 july, sun
sun300:00+7ssw45830 0.0 101963
03:00+7ssw46860 0.0 101972
06:00+9ssw45820 0.0 1019111
09:00+15w12600 0.0 1017825
12:00+18nnw44572 0.0 10161368
15:00+19nw445641 0.0 10161821
18:00+17n466920 0.1 1017453
21:00+12ssw227411 0.1 101913
4 july, mon
mon400:00+10ssw448617 0.0 101952
03:00+9s44865 0.0 101964
06:00+10s45825 0.0 1019110
09:00+17ssw22600 0.0 1017432
12:00+20nnw22510 0.0 10161659
15:00+21nnw325163 0.0 10161999
18:00+19nne236881 0.0 1016139
21:00+16s22712 0.0 101831
5 july, tue
tue500:00+11s448621 0.0 101861
03:00+10s458421 0.0 101961
06:00+12s35770 0.0 1019103
09:00+19ssw11600 0.0 1018332
12:00+23nne325219 0.0 10172075
15:00+23ne435289 0.0 10162018
18:00+21ene36671 0.0 1016297
21:00+14ne22840 0.0 101814